Regional Weather Roundup
Issued by NWS

Home | Current Version | Previous Version | Graphics & Text | Print | Product List | Glossary On
Versions: 1 2 3 4 5 6 7 8 9 10 11 12 13 14 15 16 17 18 19 20 21 22 23 24 25 26 27 28 29 30 31 32 33 34 35 36 37 38 39 40 41 42 43 44 45 46 47 48 49 50
000
ASUS43 KMPX 031901
RWRMN
WEATHER ROUNDUP FOR MINNESOTA
NATIONAL WEATHER SERVICE TWIN CITIES/CHANHASSEN MN
200 PM CDT MON AUG 03 2015


NOTE: "FAIR" INDICATES FEW OR NO CLOUDS BELOW 12,000 FEET WITH NO
SIGNIFICANT WEATHER AND/OR OBSTRUCTIONS TO VISIBILITY. N/A MEANS
CURRENT SKY AND/OR WEATHER CONDITIONS ARE NOT AVAILABLE.

MNZ060>063-068>070-032000-
   Twin Cities Metro

CITY           SKY/WX    TMP DP  RH WIND       PRES   REMARKS
TWIN CITIES    MOSUNNY   78  50  37 NW15      29.91S
ST PAUL        MOSUNNY   78  48  34 W15G28    29.91S
CRYSTAL        MOSUNNY   78  49  35 NW16      29.90S
BLAINE         MOSUNNY   77  48  36 NW15G21   29.90F
LAKEVILLE      SUNNY     73  50  43 W9G16     29.92F
EDEN PRAIRIE   SUNNY     78  49  35 NW12      29.91S
SOUTH ST PAUL  SUNNY     77  46  32 NW15G22   29.90F
LAKE ELMO      FAIR      73  52  46 W14G23    29.92S
$$
MNZ001>005-007-008-013>017-022>024-027-028-032000-
   Northwest Minnesota

CITY           SKY/WX    TMP DP  RH WIND       PRES   REMARKS
BEMIDJI        CLOUDY    69  52  53 NW17G24   29.90S
HALLOCK        MOSUNNY   73  50  43 NW13G22   29.92S
ROSEAU         PTSUNNY   70  55  60 NW12      29.91R
WARROAD        CLOUDY    64  55  72 NW13G22   29.90R
THIEF RVR FALL MOSUNNY   70  50  49 NW18      29.92F
CROOKSTON      MOSUNNY   72  52  49 NW15G25   29.93F
FOSSTON        MOSUNNY   72  48  43 NW13G25   29.93S
DETROIT LAKES  SUNNY     73  46  38 NW16      29.95S
MOORHEAD       SUNNY     73  48  40 N13       29.94S
PARK RAPIDS    PTSUNNY   73  49  42 NW12G24   29.92S
MAHNOMEN       FAIR      71  52  51 NW14G20   29.93F
$$
MNZ006-009>011-018-025>026-032000-
   North Central Minnesota

CITY           SKY/WX    TMP DP  RH WIND       PRES   REMARKS
BAUDETTE       PTSUNNY   66  52  60 NW15      29.88R
FLAG ISLAND    CLOUDY    61  54  77 NW16G30   29.86S
INTL FALLS     CLOUDY    65  55  70 NW12G21   29.84S
WASKISH        CLOUDY    66  54  63 NW10      29.89R
BIG FORK       MOSUNNY   66  54  63 W3        29.88R
LONGVILLE      CLOUDY    72  50  46 W12G18    29.90S
GRAND RAPIDS   CLOUDY    66  50  55 NW14G21   29.89S
CRANE LAKE     CLOUDY    63  55  77 NW7       29.84S
ORR            PTSUNNY   64  54  68 W9G20     29.82F
COOK           PTSUNNY   64  54  68 NW15      29.85S
WALKER         CLOUDY    69  51  52 W13G20    29.90F
$$
MNZ012-019>021-037-032000-
   Northeast Minnesota

CITY           SKY/WX    TMP DP  RH WIND       PRES   REMARKS
DULUTH         CLOUDY    67  52  58 NW12      29.86R
ELY            LGT RAIN  63  52  67 W13G18    29.83R
HIBBING        CLOUDY    67  51  56 W10G22    29.86S
EVELETH        MOSUNNY   64  52  63 NW10      29.86S
DULUTH HARBOR  CLOUDY    70  54  56 NW14      29.85R
TWO HARBORS    CLOUDY    72  57  60 W13G18    29.82S
SILVER BAY     MOSUNNY   72  52  49 W8G17     29.80S
GRAND MARAIS     N/A     71  51  49 NW8G18    29.75S
G MARAIS ARPRT   N/A     64  50  59 NW7G21    29.81R
$$
MNZ029>031-032-039>041-046>048-054>057-064-032000-
   West Central Minnesota

CITY           SKY/WX    TMP DP  RH WIND       PRES   REMARKS
FERGUS FALLS   SUNNY     75  50  41 NW12G20   29.93S
WHEATON        SUNNY     73  52  46 NW9       29.96F
MORRIS         MOSUNNY   75  54  46 NW17      29.94F
ALEXANDRIA     SUNNY     75  50  41 NW13G21   29.95F
ELBOW LAKE     FAIR      74  51  43 NW13G20   29.94S
WADENA         SUNNY     75  46  35 NW16      29.92S
GLENWOOD       SUNNY     75  52  43 W17       29.95F
APPLETON       SUNNY     79  46  31 NW14      29.95S
BENSON         SUNNY     77  48  36 NW10      29.95F
ORTONVILLE     SUNNY     77  48  36 NW9G18    29.96S
MADISON        SUNNY     77  52  41 NW10      29.96S
WILLMAR        FAIR      77  48  36 NW14G21   29.96S
$$
MNZ033>034-036-042>043-049>051-058-059-032000-
   Central Minnesota

CITY           SKY/WX    TMP DP  RH WIND       PRES   REMARKS
ST CLOUD       MOSUNNY   77  49  37 NW13G20   29.91F
SAUK CENTRE    FAIR      74  49  42 W14       29.93F
PAYNESVILLE    SUNNY     73  47  38 SW10G17   29.94S
AITKIN         CLOUDY    73  54  49 W5        29.88S
PINE RIVER     PTSUNNY   72  52  49 W9G21     29.93S
BRAINERD       PTSUNNY   75  45  34 W15G24    29.90F
STAPLES        SUNNY     75  43  31 W17       29.91F
LONG PRAIRIE   FAIR      73  46  38 W10G21    29.93F
LITTLE FALLS     N/A     73  43  33 W10       29.91F
LITCHFIELD     SUNNY     75  48  38 W10G20    29.94F
BUFFALO        MOSUNNY   76  47  36 SW8       29.93F
MAPLE LAKE     MOSUNNY   75  52  43 W9        29.93F
$$
MNZ037-044-045-052-053-032000-
   East Central Minnesota

CITY           SKY/WX    TMP DP  RH WIND       PRES   REMARKS
PRINCETON      MOSUNNY   77  48  36 NW13G20   29.91S
MORA           MOSUNNY   73  48  40 NW15      29.91S
CAMBRIDGE      MOSUNNY   79  55  44 W17       29.89S
RUSH CITY      MOSUNNY   74  49  42 NW9G17    29.90S
MOOSE LAKE     CLOUDY    70  52  52 NW12      29.87R
HINCKLEY       MOCLDY    72  52  49 NW12G18   29.89S
CLOQUET        CLOUDY    70  48  46 W12       29.87S
MCGREGOR       CLOUDY    70  50  49 NW12      29.89S
$$
MNZ071>073-080-081-089-090-097-098-032000-
   Southwest Minnesota

CITY           SKY/WX    TMP DP  RH WIND       PRES   REMARKS
MONTEVIDEO     SUNNY     81  55  41 NW9       29.97F
GRANITE FALLS  SUNNY     77  54  45 NW7       29.97F
CANBY          SUNNY     78  52  40 NW7       29.97F
MARSHALL       SUNNY     77  52  41 NW9       29.98F
REDWOOD FALLS  SUNNY     79  50  36 NW10G20   29.94F
OLIVIA         SUNNY     73  50  43 NW13      29.95F
PIPESTONE      MOSUNNY   77  54  44 NW6       30.00S
WINDOM         SUNNY     77  52  41 W13       29.98S
WORTHINGTON    MOSUNNY   77  54  44 NW9       29.99F
JACKSON        SUNNY     79  54  41 NW13G20   29.99S
TRACY          SUNNY     77  55  47 N9        29.98F
SLAYTON        MOSUNNY   78  51  39 CALM      30.00S
$$
MNZ065>067-074>077-082>085-091>093-032000-
   South Central Minnesota

CITY           SKY/WX    TMP DP  RH WIND       PRES   REMARKS
MANKATO        SUNNY     75  48  38 W15       29.94F
NEW ULM        SUNNY     77  48  36 W15G22    29.94F
FAIRMONT       SUNNY     77  50  38 W13       29.96S
GLENCOE        MOSUNNY   77  57  50 W10G16    29.93F
FARIBAULT      SUNNY     75  54  46 W7G16     29.93F
OWATONNA       SUNNY     75  48  38 W13G21    29.94F
WASECA         SUNNY     73  52  46 NW13      29.96S
ALBERT LEA     SUNNY     75  54  46 NW12G17   29.95F
$$
MNZ078>079-086>088-094>096-032000-
   Southeast Minnesota

CITY           SKY/WX    TMP DP  RH WIND       PRES   REMARKS
ROCHESTER      SUNNY     74  54  49 NW9       29.94F
RED WING       SUNNY     79  45  29 NW10G20   29.89S
STANTON        SUNNY     76  50  38 W10G17    29.91F
DODGE CENTER   SUNNY     73  48  40 NW16      29.94F
WINONA         MOSUNNY   77  50  38 NW9G17    29.90S
AUSTIN         SUNNY     75  52  43 NW9G18    29.94F
PRESTON        SUNNY     73  52  47 W18       29.94S
$$
ABBREVIATIONS USED IN REMARKS
   TC - TEMPERATURES IN CELSIUS
  WCI - WIND CHILL INDEX
   HX - HEAT INDEX
  VSB - VISIBILITY
$$


USA.gov is the U.S. government's official web portal to all federal, state and local government web resources and services.